Tracking 19827 objects as of 23-Aug-2019
HD Live streaming from Space Station
objects crossing your sky now

FENGYUN 1C DEB

Track FENGYUN 1C DEB now!
10-day predictions


NORAD ID: 29851
Int'l Code: 1999-025EV
Perigee: 858.2 km
Apogee: 1,071.1 km
Inclination: 99.5 °
Period: 104.2 minutes
Semi major axis: 7335 km
RCS: 0.0808 m2 (small)
Launch date: May 10, 1999
Source: People's Republic of China (PRC)
Launch site: Taiyaun Space Center, China (TSC)

Note: This is SATELLITE DEBRIS
aabbcc
Your satellite tracking list
Your tracking list is empty




NASA's NSSDC Master Catalog

Two Line Element Set (TLE):
1 29851U 99025EV  19233.87046497 +.00000063 +00000-0 +93802-4 0  9998
2 29851 099.5260 194.3275 0145092 171.3889 243.7934 13.81792752635211
Source of the keplerian elements: AFSPC